Theta_e
310 311 312 314 314 315 315 315 316 315 314 312 313 312 311 310 309 308 309 309 309 309 309 308 308 308 306 306 305 305 303 302 299 301 303 304 302 302 304 305 306 304 303
308 309 310 312 312 313 314 315 316 316 316 316 312 313 312 311 310 309 308 311 310 309 310 308 308 310 306 306 306 304 303 303 301 299 301 302 301 303 303 303 305 306 302
306 306 307 309 310 311 313 313 315 315 315 315 314 312 312 311 310 310 309 310 311 311 311 310 309 307 306 306 306 305 304 306 302 300 300 301 301 302 301 302 302 300 303
306 304 305 306 308 309 311 311 312 313 314 314 314 313 312 311 311 310 310 310 311 311 311 311 310 309 308 306 306 305 304 303 301 300 299 299 300 301 301 299 298 299 299
306 304 303 306 307 308 309 310 310 311 312 313 313 313 312 311 311 309 310 309 309 310 311 311 311 311 313 311 308 306 305 304 302 300 298 298 298 299 298 298 296 295 294
306 306 306 305 305 306 307 308 309 309 309 310 311 311 311 311 312 312 310 309 310 310 310 310 311 313 313 315 315 313 309 304 303 302 299 298 299 299 299 298 295 291 288
305 305 306 307 306 305 306 307 307 307 309 308 309 310 309 310 313 314 312 309 309 310 310 310 309 310 312 311 315 315 313 313 310 304 301 301 299 301 299 294 292 291 290
303 303 304 305 306 306 305 305 306 307 307 308 309 309 309 310 313 314 314 310 309 310 310 311 310 309 309 309 308 309 308 309 309 307 304 303 303 303 301 299 295 292 291
301 302 303 304 304 305 305 305 306 305 306 307 309 308 307 308 312 313 313 310 308 309 310 311 310 309 310 312 306 305 305 304 309 311 309 310 309 307 301 296 291 288 283
300 301 302 303 303 304 305 305 306 306 307 308 308 309 310 309 311 312 312 310 307 307 309 310 311 311 312 312 306 304 302 303 303 304 305 307 306 305 306 298 294 288 285
302 301 301 301 301 303 304 305 305 305 306 306 307 308 308 309 309 311 312 310 308 306 307 307 310 312 312 311 310 305 304 305 306 304 300 298 296 295 294 293 292 290 287
300 300 300 300 300 302 301 304 305 305 304 304 305 307 309 309 311 311 313 312 311 308 306 307 308 310 312 311 309 309 310 308 304 302 300 297 295 293 291 291 290 290 290
299 298 299 300 300 300 300 302 304 304 303 304 305 305 306 308 308 311 312 313 312 310 309 308 308 309 311 311 310 309 310 305 302 299 298 297 297 296 292 290 290 289 289
298 298 299 298 299 299 300 301 301 303 303 304 304 305 305 306 305 306 308 309 311 311 310 309 308 308 309 309 308 308 306 304 302 300 298 298 296 293 292 290 287 286 286
297 298 298 299 299 299 300 300 301 302 305 305 305 305 305 304 306 306 306 305 306 308 308 305 300 300 302 304 304 304 304 303 301 299 296 295 295 292 289 290 287 286 284
297 297 298 298 298 299 298 299 303 303 304 305 306 306 307 308 308 307 307 306 306 307 303 302 302 301 301 301 301 301 301 301 299 297 296 294 292 290 288 288 288 287 286
296 297 298 299 298 298 298 298 298 301 303 304 306 306 306 306 306 305 305 305 305 307 302 302 302 300 300 300 300 300 299 300 299 297 295 292 290 288 289 287 287 287 286
296 299 298 298 298 298 298 298 298 298 298 299 303 305 305 305 305 303 303 303 299 302 302 302 302 300 300 300 300 300 300 299 297 296 294 290 289 288 287 287 287 286 286
295 296 297 297 298 298 298 298 298 298 298 299 300 303 303 305 304 304 303 300 299 299 300 302 303 302 300 301 300 300 299 298 296 294 292 290 289 288 287 287 287 288 287
294 296 296 296 297 296 298 298 297 297 298 299 299 300 301 301 298 298 300 300 299 299 300 301 303 303 301 301 300 299 297 296 295 293 292 290 289 289 287 287 287 286 286
292 292 295 294 295 296 297 297 297 297 297 298 299 301 303 301 301 300 300 299 300 300 300 302 302 302 301 300 298 297 296 295 294 292 291 290 289 287 288 288 287 286 285
290 291 293 294 295 294 294 295 296 297 298 298 299 301 301 301 301 302 301 302 301 302 302 302 302 302 300 299 298 297 295 293 292 291 290 289 288 288 288 287 287 286 285
286 286 287 288 292 295 296 297 297 298 298 298 299 299 299 299 299 301 302 303 303 303 303 303 302 301 298 299 298 297 294 292 292 291 289 289 288 288 288 287 286 285 285
284 283 283 284 285 285 288 294 297 297 298 299 299 299 299 299 300 300 301 302 303 303 303 302 300 297 295 295 296 295 294 293 292 291 290 289 288 289 287 287 286 287 286
282 281 281 281 281 282 282 283 285 288 296 299 299 299 298 299 299 300 300 301 301 300 298 297 296 294 293 292 292 291 291 291 291 291 291 290 289 288 287 287 287 287 286
281 280 280 280 280 280 280 281 281 282 283 284 285 286 292 296 299 299 298 299 297 295 294 293 294 293 292 292 291 290 291 291 290 291 290 289 288 288 287 287 287 285 285
Wind_Speed
8 7 8 10 12 11 13 12 13 10 9 10 14 13 13 12 11 10 10 9 11 9 8 9 10 8 6 5 5 5 5 5 5 4 2 5 6 5 3 3 2 3 4
8 8 9 8 8 11 13 15 13 14 14 14 11 15 15 15 13 14 13 13 14 13 12 10 11 8 9 7 7 8 6 5 5 6 3 3 4 4 4 3 4 3 3
7 7 8 8 8 11 12 12 12 12 13 14 14 15 17 17 17 17 16 16 15 15 14 14 13 11 11 8 8 8 6 6 5 4 5 3 4 2 3 3 4 3 3
9 8 7 8 8 9 9 8 9 12 13 13 15 16 16 16 17 17 17 17 16 14 13 14 14 15 15 12 11 10 8 8 5 4 4 4 4 5 3 3 3 1 2
8 8 8 8 7 7 8 8 8 9 12 13 14 15 15 15 13 17 17 17 16 15 14 15 15 19 22 18 12 12 11 10 7 5 4 4 4 3 5 3 3 1 3
10 9 10 8 7 8 8 8 8 8 9 11 14 15 16 13 20 22 19 16 17 17 16 17 16 19 22 24 25 21 19 14 13 8 5 6 7 5 4 5 4 2 3
10 7 8 10 10 8 8 8 8 9 9 11 13 14 16 16 19 21 23 15 16 18 18 16 15 14 19 17 23 23 20 22 18 14 11 11 7 8 7 5 5 5 5
11 7 8 10 10 8 8 8 8 7 9 11 13 13 14 14 19 21 22 20 16 16 17 17 17 17 16 18 16 16 16 15 16 11 13 9 7 7 9 7 7 4 0
11 8 9 10 12 9 8 8 7 7 7 9 11 12 13 15 17 21 19 18 19 18 15 16 17 16 17 24 16 17 16 13 13 16 12 11 11 13 13 8 5 4 2
9 11 11 12 11 13 9 8 6 6 8 7 10 12 15 15 17 19 21 14 18 15 16 16 22 20 23 29 21 17 17 18 15 11 8 11 12 11 19 9 8 5 4
11 12 12 11 12 12 10 6 7 7 7 7 9 9 10 13 13 18 23 17 15 13 14 14 14 26 27 31 32 19 22 14 18 13 10 7 6 6 5 5 7 6 5
13 13 13 12 10 10 12 13 7 7 7 7 7 8 8 9 14 15 22 28 21 16 15 12 13 18 26 27 27 25 21 19 11 12 11 10 9 8 7 7 7 6 5
14 14 13 14 12 11 10 12 8 7 6 7 7 8 8 7 7 15 17 24 27 19 14 14 16 17 23 22 29 27 21 13 12 12 13 12 12 9 8 6 6 6 6
14 14 13 12 14 12 8 7 10 8 6 6 7 8 8 7 6 5 7 9 20 16 19 14 11 9 17 19 18 18 13 13 13 14 12 9 8 9 9 8 5 4 4
14 12 12 10 11 12 11 9 9 11 9 11 9 8 8 9 8 9 9 6 7 10 10 6 3 3 7 9 10 13 13 11 12 10 9 10 10 9 8 9 5 5 5
14 11 10 8 9 10 11 13 13 17 20 18 19 16 11 15 15 10 10 12 13 13 5 6 9 9 11 11 12 12 11 14 11 9 10 10 11 11 10 9 7 7 8
13 13 11 9 9 11 12 12 14 12 16 18 17 19 18 20 17 14 10 12 11 11 6 8 9 8 9 10 11 13 14 13 13 11 12 11 11 10 14 9 9 8 6
18 19 8 9 10 11 12 13 12 12 14 14 12 14 15 18 20 17 14 7 4 7 7 9 10 9 10 10 10 11 10 11 12 12 11 12 13 13 11 11 11 10 8
14 13 13 12 12 14 13 15 14 14 13 13 14 13 9 17 18 13 12 9 10 10 9 10 10 9 10 10 10 10 11 12 12 12 11 12 12 12 12 11 11 16 13
15 24 20 14 13 13 13 13 13 13 13 12 11 13 8 4 3 5 7 8 9 10 9 10 11 10 10 11 11 11 10 11 12 12 12 11 11 11 11 12 11 11 9
13 15 23 16 14 15 13 13 12 12 12 12 13 12 15 11 10 9 8 9 10 10 11 10 10 10 9 10 11 12 12 12 12 11 11 11 12 11 11 10 9 9 8
13 14 14 14 14 14 14 14 15 14 13 13 13 12 14 10 11 11 9 10 10 11 10 10 10 10 9 11 12 13 13 13 13 12 11 11 12 11 10 11 10 9 9
12 13 13 13 15 20 15 13 14 14 13 13 13 12 11 10 9 11 12 12 10 10 10 9 11 9 7 9 11 13 14 14 13 13 13 13 12 12 12 12 12 10 10
12 13 13 12 12 13 15 16 14 16 14 14 13 13 12 10 11 12 12 11 10 10 9 8 8 10 9 8 8 9 9 10 11 13 16 13 13 15 11 11 11 12 10
14 15 15 14 14 14 14 14 15 18 15 13 12 11 10 10 10 12 10 10 8 9 8 7 8 9 11 12 10 10 12 18 15 17 12 15 15 17 13 10 11 10 10
14 15 14 13 14 14 14 14 15 15 15 13 14 14 14 13 12 11 8 7 5 4 4 3 4 15 12 10 13 14 21 21 18 21 14 13 13 12 11 11 13 8 10
Wind_Direction
218 223 210 211 215 214 219 218 214 208 201 197 191 189 194 199 196 192 196 196 208 204 207 203 209 194 201 196 185 189 202 177 198 285 175 195 173 187 214 213 217 259 257
216 211 215 209 208 218 223 223 219 213 205 203 192 193 194 197 198 200 199 205 207 209 204 204 211 201 203 193 192 200 194 194 172 200 252 222 179 193 184 201 240 237 230
286 225 223 214 206 221 228 228 222 223 218 213 205 199 199 199 198 202 203 204 210 212 204 202 207 196 205 200 195 198 194 202 188 178 216 211 207 173 201 231 210 244 252
331 315 251 233 218 212 220 224 221 220 222 216 214 212 210 209 208 207 205 208 211 212 204 203 202 203 209 200 199 199 188 196 194 194 198 210 208 232 173 184 254 215 271
321 324 309 265 239 230 221 220 223 220 224 221 219 222 218 213 210 209 210 210 208 209 206 204 206 206 207 200 195 198 189 196 192 193 195 187 206 206 195 197 180 157 281
329 349 334 329 291 253 238 228 224 228 225 223 222 219 221 222 219 208 206 210 210 209 208 210 211 203 207 201 203 200 196 190 198 195 192 201 211 201 180 174 153 105 300
326 352 344 338 333 314 270 233 225 227 232 236 231 223 226 224 221 217 211 214 213 214 214 211 212 212 205 204 209 205 201 203 198 190 199 207 186 193 158 167 164 160 200
317 342 337 333 323 312 317 291 253 222 225 235 242 236 233 230 216 215 214 222 225 224 221 218 215 214 202 199 201 206 209 204 202 194 201 197 193 185 172 168 165 167 274
310 333 329 326 317 305 297 291 284 257 238 231 237 240 237 239 223 213 205 221 227 226 219 219 215 214 202 197 199 205 211 210 205 200 183 189 165 163 148 126 150 128 254
316 326 322 318 309 309 289 280 267 263 257 245 244 239 239 242 232 216 207 221 227 223 226 223 217 211 198 193 198 198 205 209 198 196 190 178 165 163 166 164 157 162 167
313 314 313 307 307 302 304 281 271 269 268 264 254 250 244 240 236 221 211 221 226 226 230 229 225 213 203 196 198 199 207 188 195 181 172 162 161 170 170 166 172 156 168
308 305 304 303 300 304 302 297 273 266 265 264 261 261 252 245 240 232 215 218 225 228 230 231 234 218 216 205 199 207 201 178 173 177 176 179 182 187 185 178 179 182 177
299 300 301 300 299 296 294 297 309 277 262 266 260 264 264 247 240 235 226 221 226 233 232 231 219 215 205 206 202 203 190 185 178 181 188 190 193 180 156 159 172 172 176
290 292 298 299 301 298 293 299 295 294 279 266 268 267 268 263 243 229 229 225 232 233 244 244 237 218 200 200 196 197 194 196 190 190 190 178 155 156 173 165 159 149 159
291 289 290 294 299 302 296 287 284 283 273 283 270 263 274 273 262 228 217 210 202 220 227 237 224 173 193 201 194 196 198 195 195 184 172 165 169 169 169 167 148 159 180
290 290 285 284 289 294 294 296 270 265 274 268 267 261 271 257 274 274 269 238 205 191 200 218 228 219 208 193 192 192 195 195 192 182 176 173 170 171 166 166 168 180 190
281 284 281 279 297 294 291 290 293 289 253 269 267 268 259 258 263 266 249 247 222 181 208 211 222 209 210 202 194 193 196 196 186 185 180 175 167 167 165 173 176 178 186
319 304 295 295 289 290 293 286 283 286 293 293 278 258 262 253 254 249 249 240 252 217 212 217 219 205 199 203 203 199 194 188 190 187 181 171 170 170 169 174 177 178 179
305 295 291 290 285 280 282 279 277 279 277 279 291 276 258 253 245 240 212 220 241 232 219 224 221 214 202 195 197 197 193 190 186 184 183 175 172 169 175 174 174 177 176
302 293 295 295 291 289 284 274 273 275 277 277 276 280 286 222 225 222 214 210 218 236 226 221 219 216 205 199 191 186 187 188 188 186 182 176 173 173 172 171 173 172 179
300 296 294 290 289 289 289 287 281 271 273 273 273 273 272 274 270 241 227 221 222 225 227 220 219 216 207 196 186 183 183 181 185 186 181 173 168 169 168 169 168 167 154
306 303 304 295 288 284 279 273 270 267 266 272 277 272 264 267 272 269 247 235 227 226 219 211 212 210 203 193 187 185 183 180 177 176 175 170 166 165 161 160 161 162 161
332 330 328 322 318 302 282 279 276 273 270 266 268 272 270 264 256 260 258 255 244 229 222 208 205 206 193 194 190 184 181 180 177 170 168 167 163 164 164 164 164 162 167
346 346 341 340 339 334 335 323 293 277 272 273 271 269 271 264 264 259 253 248 244 232 219 211 197 178 168 171 177 179 179 173 164 165 161 163 162 158 157 158 162 164 164
357 357 360 357 355 352 349 349 348 351 325 297 284 279 274 278 274 271 256 242 226 223 207 199 166 159 165 157 160 159 157 155 156 155 156 155 156 154 156 158 162 165 168
3 4 4 4 1 2 2 1 0 2 359 356 358 355 346 329 303 282 256 238 218 198 173 194 199 144 155 150 144 149 150 148 148 147 145 146 149 150 153 157 164 166 170